Location: *
(26.3740°N, 146.7320°E)
Time: 07:31:48
(UTC+00:00)

Daily predictions for brighter satellites

Satellite Brightness Start Highest point End
(mag) Time Altitude Azimuth Time Altitude Azimuth Time Altitude Azimuth
CZ-3 R/B 4.5 14:32:04 10° SW 15:55:36 49° E 16:03:05 10° ENE
Cosmos 2227 Rocket 4.2 17:52:29 22° NE 17:53:19 23° ENE 17:57:44 10° ESE
SJ 16-02 4.5 18:00:04 10° ESE 18:01:45 12° E 18:03:26 10° ENE
Cosmos 2297 Rocket 4.0 18:05:01 19° NNE 18:07:34 27° ENE 18:12:16 10° ESE
NOSS 3-2 (C) 4.3 18:13:16 61° S 18:13:16 61° S 18:20:01 10° SSE
CZ-4B R/B 4.2 18:11:51 10° NNE 18:15:32 40° NE 18:15:32 40° NE
Milstar 3 4.4 18:26:56 36° SSW 18:26:56 36° SSW 18:34:12 10° SSE
Hubble Space Telescope 2.4 18:38:39 33° E 18:38:39 33° E 18:41:08 10° E
Gbstr 26 Del rocket 4.0 18:41:25 69° SW 18:41:25 69° SW 18:48:47 10° SSE
CENTAUR R/B 3.3 18:35:09 17° NNW 18:41:50 73° ENE 18:50:19 10° SSE
Cosmos 2285 Rocket 4.3 18:38:28 10° N 18:44:53 67° ENE 18:51:15 10° SSE
Intelsat 5-3 Rocket 3.3 18:45:00 65° SSW 18:45:15 66° S 18:55:29 10° E
USA 215 3.7 18:40:48 10° SSE 18:46:01 42° SSW 18:46:01 42° SSW
IDEFIX/ARIANE 42P 3.9 18:43:20 10° NNE 18:48:12 39° E 18:53:01 10° SSE
Meteor 1-28 Rocket 4.5 18:50:43 10° SSE 18:52:59 34° SSE 18:52:59 34° SSE
Cosmos 1980 Rocket 2.2 18:52:03 26° SSW 18:55:22 84° ESE 19:01:03 10° NNE
Centaur D-1A AC-31 1.9 18:54:30 58° WNW 18:55:40 85° N 19:12:37 10° E
Cosmos 1934 Rocket 3.9 18:53:03 10° S 18:59:21 89° ESE 19:05:45 10° N
PAYLOAD A 4.5 19:00:15 10° NNE 19:04:59 57° E 19:09:52 10° S
OAO 3 Copernicus 4.4 19:05:14 55° SW 19:05:35 56° SSW 19:10:32 10° SE
CZ-2C R/B 3.8 19:02:32 10° NNE 19:07:21 41° E 19:12:13 10° S
GPS 2-17 Rocket1 4.4 19:07:05 27° SSW 19:08:19 30° S 19:12:30 10° ESE
Palapa 6 Rocket 3.6 19:07:14 47° SW 19:08:19 58° S 19:12:49 10° ESE
Meteor 2-10 Rocket 3.4 19:08:50 38° SW 19:10:32 56° W 19:15:29 10° N
Cosmos 2123 Rocket 4.4 19:06:49 10° N 19:12:59 63° E 19:19:11 10° SSE
ATLAS 5 CENTAUR R/B 2.6 19:12:46 10° S 19:16:56 46° ESE 19:21:19 10° NE
Cosmos 1821 Rocket 4.2 19:11:39 10° SSW 19:17:22 42° W 19:23:10 10° NNW
Milstar 3 Cent rocket 3.9 19:19:23 13° SW 19:24:03 40° SSE 19:32:48 10° E
Cosmos 1125 Rocket 3.3 19:20:56 10° SSW 19:26:05 71° WNW 19:31:16 10° N
SL-16 R/B 3.4 19:21:03 10° S 19:26:24 44° ESE 19:31:45 10° NE
Cosmos 1697 Rocket 3.7 19:27:34 24° NW 19:27:34 24° NW 19:31:27 10° N
Fermi 4.1 19:25:56 40° WSW 19:27:04 54° SSW 19:31:07 10° ESE
Okean-O 2.5 19:25:51 10° N 19:30:17 85° WNW 19:34:43 10° SSW
Cosmos 489 Rocket 4.4 19:24:54 10° SSW 19:31:11 73° WNW 19:37:27 10° N
Tiangong 1 2.4 19:30:58 19° NNE 19:31:18 20° NNE 19:33:06 10° E
Cosmos 405 Rocket 3.5 19:27:39 10° S 19:31:35 57° E 19:35:29 10° NNE
ASTRO E2 3.3 19:31:17 30° NW 19:32:52 47° N 19:36:45 10° E
Cosmos 372 Rocket 3.9 19:28:56 10° SSW 19:33:54 56° WNW 19:38:55 10° N
Cosmos 1862 Rocket 4.2 19:31:07 10° S 19:35:21 58° E 19:39:38 10° NNE
Cosmos 1933 3.4 19:31:55 10° SSW 19:35:53 54° W 19:39:53 10° N
Cosmos 2227 Rocket 2.8 19:34:26 21° NW 19:37:18 33° WSW 19:42:17 10° SSW
CZ-3 R/B 2.4 19:25:56 22° W 19:38:09 81° N 19:43:22 10° E
SJ 16-02 1.9 19:36:44 15° SW 19:39:54 36° WNW 19:44:00 10° N
COSMO-SKYMED 1 2.6 19:36:23 10° SSE 19:40:42 85° E 19:45:03 10° N
Cosmos 1733 Rocket 4.4 19:40:17 10° N 19:44:27 43° E 19:48:38 10° SSE
Cosmos 405 4.4 19:42:37 10° N 19:46:00 41° E 19:49:23 10° SSE
Cosmos 1862 3.5 19:42:37 10° NNW 19:46:25 45° W 19:50:15 10° SSW
MTI 3.9 19:47:49 10° SSE 19:50:59 74° ENE 19:54:09 10° N
Cosmos 2297 Rocket 3.0 19:46:57 11° NW 19:51:27 29° WSW 19:56:13 10° SSW
EO 1 Del DPAF 4.2 19:48:19 10° SSE 19:52:00 49° ENE 19:55:42 10° N
SEDSat Delta rocket 3.6 19:56:49 15° WNW 20:00:16 43° N 20:04:17 10° ENE
Cosmos 468 4.5 19:56:27 10° NNW 20:01:41 84° WSW 20:06:54 10° SSE
Cosmos 1782 4.2 19:57:52 10° SSE 20:01:42 44° E 20:05:33 10° NNE
Cosmos 1605 Rocket 4.4 19:57:03 10° SSW 20:02:39 36° W 20:08:14 10° NNW
Cosmos 2100 Rocket 4.1 19:59:21 10° S 20:05:32 83° E 20:11:41 10° N
GPS 2-15 Rocket1 4.3 20:01:14 10° WSW 20:05:35 35° S 20:09:54 10° ESE
MSX 3.9 20:00:11 10° N 20:05:47 55° WNW 20:11:23 10° SSW
Landsat 4 3.6 20:02:24 10° S 20:06:06 71° WSW 20:09:49 10° NNW
Intelsat 5-1 Rocket 3.1 19:57:34 11° W 20:08:06 69° S 20:12:02 10° E
Delta 168 3.5 20:13:28 10° SW 20:16:24 38° SSE 20:19:49 10° E
Cosmos 1441 Rocket 4.0 20:13:16 10° SW 20:16:47 31° W 20:20:20 10° NNW
Hubble Space Telescope 0.9 20:14:10 10° W 20:18:17 69° N 20:22:26 10° ENE
OAO 3 Rocket 3.9 20:13:35 10° WNW 20:18:26 52° NNE 20:23:16 10° E
COSMOS 2455 3.6 20:12:38 10° NNW 20:18:35 58° ENE 20:24:29 10° SE
CSL-04 Rocket 4.2 20:16:46 10° NNE 20:22:02 66° ESE 20:27:20 10° S
Cosmos 2263 Rocket 4.2 20:19:02 10° N 20:23:59 31° ENE 20:28:56 10° SE
Cosmos 2061 Rocket 4.0 20:18:46 10° S 20:24:59 86° W 20:31:12 10° N
Cosmos 2322 Rocket 2.4 20:21:09 10° SW 20:26:34 48° WNW 20:32:03 10° N
